Temp
4 4 3 3 3 3 3 3 3 3 3 3 3 2 2 2 1 0 0 0 1 0 0 1 1 -0 -1 -2 -1 -3 -3 -4 -4 -4 -4 -3 -3 -5 -6 -6 -8 -7 -7 -8 -10 -9 -7 -13 -14 -14 -16 -15 -14 -15
3 3 3 4 4 3 3 3 3 3 3 3 3 3 2 2 1 0 0 1 1 1 1 0 1 0 0 0 -1 -3 -2 -4 -4 -4 -4 -4 -4 -6 -5 -5 -9 -7 -7 -7 -8 -10 -17 -14 -14 -14 -14 -15 -15 -15
3 3 3 3 3 3 3 3 3 3 3 2 2 3 2 2 1 1 0 0 0 -0 -0 -1 -1 -1 -1 -1 -1 -2 -3 -3 -4 -4 -4 -4 -5 -4 -5 -5 -8 -11 -13 -12 -12 -15 -15 -14 -15 -15 -15 -15 -15 -16
2 3 3 3 3 3 3 3 3 2 2 2 2 2 2 2 2 1 1 0 -0 -0 -2 -2 -3 -4 -3 -3 -3 -3 -3 -4 -4 -4 -5 -5 -5 -7 -7 -8 -9 -11 -11 -13 -14 -14 -15 -15 -15 -15 -16 -16 -16 -16
2 2 2 2 3 3 2 2 2 2 2 1 1 2 2 2 2 1 1 0 -0 -0 -1 -4 -6 -6 -6 -6 -5 -5 -5 -5 -6 -6 -6 -6 -9 -9 -12 -11 -11 -13 -12 -12 -11 -16 -16 -17 -17 -17 -16 -17 -17 -17
0 1 2 2 2 0 1 2 2 1 0 1 1 1 2 2 2 1 1 1 0 -0 -1 -4 -9 -10 -9 -8 -7 -7 -7 -7 -7 -8 -10 -13 -13 -11 -10 -12 -16 -17 -16 -15 -18 -17 -17 -18 -18 -18 -18 -18 -18 -19
-3 -3 -1 -0 -0 -1 -2 -2 -2 -1 0 0 1 1 1 2 1 1 1 0 1 -1 -3 -5 -8 -11 -11 -10 -10 -10 -10 -10 -10 -11 -12 -13 -14 -13 -12 -12 -17 -18 -18 -18 -18 -17 -18 -19 -19 -19 -19 -19 -19 -19
-4 -4 -3 -3 -3 -3 -3 -3 -3 -2 -1 -0 -0 1 1 1 1 0 -0 -1 -2 -3 -4 -5 -10 -11 -11 -11 -12 -11 -11 -12 -13 -14 -14 -13 -15 -15 -15 -18 -19 -19 -19 -19 -19 -19 -19 -20 -20 -20 -20 -20 -20 -19
-5 -4 -4 -4 -4 -3 -3 -3 -3 -3 -2 -1 -0 1 1 -0 -1 -2 -3 -4 -4 -3 -5 -7 -8 -9 -12 -13 -13 -13 -12 -14 -15 -16 -16 -15 -18 -17 -18 -19 -19 -19 -19 -20 -20 -20 -20 -21 -21 -21 -21 -21 -21 -20
-4 -4 -4 -4 -4 -4 -4 -4 -4 -3 -2 -1 -0 -0 -2 -4 -5 -5 -6 -5 -5 -6 -9 -12 -12 -13 -13 -12 -13 -13 -13 -15 -17 -19 -17 -21 -19 -21 -19 -18 -19 -19 -20 -20 -21 -21 -22 -22 -22 -22 -21 -22 -22 -21
-5 -5 -5 -4 -4 -4 -4 -4 -4 -3 -2 -2 -1 -3 -5 -6 -6 -6 -8 -8 -10 -12 -13 -15 -14 -14 -15 -12 -14 -15 -14 -15 -17 -18 -18 -21 -19 -23 -21 -20 -20 -20 -21 -21 -21 -21 -22 -22 -22 -22 -22 -22 -22 -22
-5 -5 -5 -5 -5 -4 -4 -4 -4 -2 -2 -2 -2 -6 -7 -7 -7 -8 -11 -13 -12 -11 -15 -16 -15 -16 -16 -14 -15 -16 -14 -15 -16 -18 -19 -20 -20 -20 -21 -21 -21 -21 -21 -22 -22 -22 -23 -23 -24 -23 -23 -23 -22 -22
-6 -5 -5 -5 -5 -5 -4 -4 -4 -4 -3 -4 -4 -7 -7 -8 -8 -9 -11 -13 -15 -16 -17 -17 -16 -16 -16 -15 -16 -15 -15 -17 -18 -20 -19 -19 -21 -20 -21 -21 -21 -22 -22 -22 -23 -23 -23 -24 -24 -24 -24 -24 -23 -23
-6 -6 -5 -5 -5 -5 -4 -4 -4 -4 -3 -4 -6 -7 -6 -8 -12 -14 -15 -16 -15 -16 -16 -16 -16 -15 -16 -16 -16 -15 -18 -17 -20 -20 -21 -26 -19 -20 -21 -21 -22 -22 -22 -23 -23 -24 -24 -24 -24 -24 -25 -24 -24 -23
-6 -5 -5 -5 -5 -5 -4 -4 -4 -4 -4 -5 -6 -6 -11 -16 -17 -17 -17 -16 -16 -16 -15 -16 -16 -16 -17 -17 -17 -18 -19 -20 -20 -19 -24 -19 -19 -20 -22 -22 -22 -22 -23 -24 -24 -25 -25 -25 -25 -25 -25 -24 -24 -24
-6 -5 -5 -5 -5 -4 -4 -5 -5 -4 -7 -11 -13 -15 -15 -16 -16 -17 -17 -17 -16 -15 -15 -15 -16 -16 -17 -17 -18 -18 -18 -19 -19 -24 -19 -19 -20 -21 -22 -22 -22 -23 -24 -25 -25 -25 -25 -25 -25 -25 -25 -25 -24 -24
-6 -5 -5 -5 -5 -5 -5 -6 -8 -11 -13 -14 -16 -15 -15 -16 -16 -16 -17 -17 -16 -15 -15 -15 -14 -16 -19 -19 -19 -20 -20 -22 -20 -19 -20 -20 -21 -22 -22 -23 -24 -24 -25 -25 -25 -25 -25 -26 -26 -25 -25 -25 -24 -24
-5 -5 -5 -5 -5 -5 -6 -9 -13 -15 -17 -17 -16 -17 -18 -17 -17 -17 -17 -16 -16 -16 -15 -15 -18 -19 -18 -19 -20 -22 -20 -20 -20 -20 -21 -21 -22 -23 -23 -24 -25 -25 -25 -25 -25 -26 -26 -26 -26 -26 -25 -25 -25 -24
-5 -5 -5 -5 -5 -6 -10 -14 -14 -17 -17 -17 -18 -18 -18 -18 -18 -18 -17 -16 -16 -16 -16 -17 -20 -19 -18 -20 -22 -19 -19 -19 -20 -21 -22 -22 -23 -23 -24 -24 -25 -25 -26 -26 -26 -26 -26 -26 -26 -26 -25 -25 -25 -25
-5 -5 -6 -6 -6 -8 -14 -15 -15 -16 -17 -17 -18 -18 -19 -19 -18 -18 -17 -17 -16 -17 -18 -19 -19 -18 -17 -17 -17 -17 -18 -19 -20 -22 -23 -23 -24 -24 -24 -25 -25 -25 -26 -26 -26 -26 -26 -26 -26 -26 -25 -25 -25 -25
-7 -8 -7 -6 -8 -12 -15 -16 -17 -17 -17 -18 -18 -18 -18 -18 -18 -18 -17 -17 -17 -18 -20 -17 -17 -17 -17 -17 -18 -18 -19 -20 -20 -20 -20 -22 -23 -24 -24 -25 -25 -26 -26 -26 -26 -26 -26 -26 -26 -26 -26 -26 -26 -26
-8 -7 -7 -8 -12 -14 -16 -16 -17 -17 -17 -17 -17 -17 -17 -17 -18 -19 -18 -18 -18 -17 -17 -17 -17 -17 -17 -18 -18 -19 -19 -20 -20 -21 -23 -23 -23 -24 -24 -24 -25 -25 -26 -26 -26 -26 -26 -26 -26 -26 -26 -26 -26 -26
-7 -7 -9 -12 -14 -15 -17 -16 -16 -16 -17 -18 -16 -17 -17 -18 -19 -19 -19 -18 -17 -17 -16 -16 -17 -17 -18 -18 -18 -19 -19 -19 -20 -20 -21 -22 -22 -23 -23 -24 -24 -25 -25 -25 -26 -26 -26 -26 -26 -26 -26 -26 -26 -26
-8 -10 -13 -15 -15 -18 -16 -16 -16 -16 -16 -16 -16 -17 -18 -20 -20 -21 -22 -18 -16 -16 -16 -16 -16 -17 -18 -18 -18 -18 -18 -19 -19 -20 -21 -21 -22 -22 -23 -23 -24 -24 -25 -25 -26 -26 -26 -26 -27 -27 -27 -27 -27 -27
-10 -15 -13 -15 -14 -15 -15 -16 -15 -16 -15 -15 -17 -19 -22 -20 -23 -25 -22 -18 -16 -15 -16 -16 -16 -17 -17 -17 -17 -17 -18 -18 -19 -19 -20 -21 -22 -22 -22 -23 -23 -24 -25 -25 -25 -26 -26 -27 -27 -27 -27 -28 -26 -26
-16 -15 -15 -14 -15 -14 -14 -14 -14 -15 -16 -20 -23 -23 -21 -27 -23 -19 -21 -14 -14 -13 -13 -13 -14 -15 -15 -16 -16 -16 -17 -18 -19 -19 -20 -20 -20 -21 -21 -22 -23 -23 -24 -24 -25 -25 -26 -26 -26 -26 -27 -27 -27 -27
-16 -15 -15 -16 -15 -15 -15 -15 -15 -19 -22 -23 -26 -27 -27 -20 -20 -20 -14 -13 -13 -12 -12 -13 -14 -14 -15 -16 -16 -17 -17 -18 -18 -19 -19 -19 -20 -20 -21 -21 -22 -23 -23 -24 -25 -25 -26 -26 -26 -26 -26 -26 -26 -27
-16 -16 -17 -18 -19 -19 -21 -23 -25 -25 -24 -21 -22 -23 -19 -19 -17 -13 -12 -12 -12 -12 -12 -13 -13 -14 -15 -16 -16 -17 -17 -18 -18 -19 -19 -19 -19 -20 -20 -21 -22 -23 -23 -24 -24 -25 -25 -25 -25 -25 -25 -25 -25 -26
-17 -17 -16 -25 -22 -23 -25 -26 -25 -22 -21 -21 -23 -22 -21 -15 -13 -12 -11 -11 -11 -11 -12 -12 -13 -14 -14 -15 -16 -16 -17 -17 -18 -18 -18 -18 -19 -19 -20 -20 -21 -22 -23 -23 -24 -25 -25 -25 -24 -24 -25 -25 -25 -25
-18 -18 -20 -23 -25 -24 -21 -21 -20 -19 -19 -19 -19 -17 -15 -12 -10 -10 -10 -10 -10 -11 -12 -13 -14 -14 -14 -15 -15 -15 -16 -16 -17 -18 -18 -18 -19 -19 -20 -20 -21 -21 -22 -23 -23 -24 -24 -24 -24 -24 -25 -25 -25 -25
-16 -16 -18 -19 -20 -17 -18 -18 -17 -17 -17 -16 -16 -16 -14 -11 -9 -8 -9 -9 -10 -11 -11 -12 -13 -13 -14 -14 -14 -15 -15 -16 -16 -17 -17 -18 -19 -19 -20 -21 -21 -22 -22 -22 -22 -23 -23 -23 -23 -23 -24 -24 -24 -24
-14 -17 -18 -20 -17 -16 -16 -16 -16 -15 -15 -15 -14 -14 -13 -13 -10 -8 -8 -9 -9 -10 -10 -12 -12 -12 -14 -15 -15 -15 -16 -16 -17 -17 -18 -18 -18 -19 -20 -21 -21 -21 -21 -22 -22 -22 -22 -23 -23 -23 -23 -23 -23 -23
-15 -16 -16 -16 -16 -15 -15 -16 -14 -14 -14 -13 -12 -13 -13 -13 -11 -8 -8 -8 -9 -10 -10 -12 -13 -14 -14 -14 -15 -15 -16 -16 -17 -17 -18 -18 -18 -19 -19 -20 -21 -21 -21 -21 -21 -22 -22 -22 -23 -23 -23 -23 -23 -23
Height
1461 1459 1457 1455 1452 1450 1447 1445 1443 1441 1439 1438 1436 1435 1435 1434 1434 1436 1431 1433 1432 1423 1415 1416 1417 1418 1417 1416 1416 1419 1426 1426 1429 1430 1427 1420 1416 1415 1419 1415 1424 1424 1429 1434 1442 1441 1421 1427 1435 1440 1434 1433 1435 1436
1451 1449 1447 1445 1443 1440 1437 1435 1432 1431 1429 1427 1425 1424 1423 1423 1423 1424 1420 1423 1422 1418 1405 1402 1404 1404 1404 1404 1405 1407 1405 1409 1411 1416 1416 1414 1412 1414 1410 1411 1417 1419 1412 1415 1416 1417 1422 1422 1423 1426 1429 1431 1433 1434
1441 1438 1436 1434 1432 1430 1428 1425 1423 1421 1418 1416 1415 1413 1413 1412 1412 1413 1410 1413 1412 1405 1398 1394 1392 1394 1395 1395 1396 1398 1397 1398 1399 1400 1402 1404 1405 1403 1403 1402 1409 1414 1415 1418 1419 1421 1421 1422 1423 1425 1427 1429 1431 1431
1431 1429 1427 1424 1421 1419 1417 1414 1412 1410 1408 1406 1404 1403 1402 1401 1401 1402 1400 1400 1402 1398 1393 1385 1385 1386 1386 1387 1387 1388 1389 1391 1392 1394 1395 1396 1398 1399 1400 1402 1405 1408 1412 1414 1418 1419 1422 1422 1422 1424 1426 1427 1427 1428
1420 1418 1416 1414 1412 1409 1407 1404 1402 1400 1397 1395 1394 1393 1392 1392 1391 1391 1389 1389 1392 1394 1384 1383 1382 1382 1382 1382 1383 1384 1386 1387 1388 1391 1391 1392 1395 1398 1403 1405 1402 1402 1402 1406 1403 1410 1413 1419 1421 1422 1424 1424 1425 1425
1408 1407 1406 1404 1402 1400 1397 1395 1392 1390 1388 1385 1384 1383 1382 1382 1382 1382 1379 1377 1380 1382 1381 1382 1381 1379 1380 1380 1380 1379 1381 1383 1385 1387 1392 1395 1396 1398 1398 1399 1399 1399 1400 1401 1405 1410 1413 1416 1419 1420 1421 1422 1422 1422
1399 1396 1394 1393 1391 1390 1389 1386 1383 1381 1379 1377 1375 1373 1372 1373 1372 1372 1369 1368 1369 1374 1376 1378 1377 1379 1379 1380 1380 1380 1381 1383 1385 1388 1392 1395 1397 1398 1397 1391 1397 1401 1402 1404 1407 1410 1413 1415 1416 1418 1418 1419 1418 1418
1389 1387 1385 1383 1382 1381 1379 1377 1375 1373 1370 1368 1366 1364 1361 1361 1362 1360 1359 1360 1363 1367 1371 1371 1376 1380 1379 1379 1381 1381 1383 1384 1388 1391 1394 1395 1398 1398 1396 1398 1400 1402 1403 1406 1407 1409 1410 1412 1414 1415 1415 1415 1415 1415
1379 1377 1375 1373 1373 1372 1370 1368 1367 1364 1361 1360 1357 1355 1353 1350 1349 1349 1352 1356 1358 1364 1362 1363 1365 1369 1376 1379 1380 1383 1383 1388 1392 1394 1396 1398 1401 1398 1394 1397 1399 1402 1404 1405 1407 1409 1410 1411 1411 1412 1412 1412 1412 1411
1368 1366 1365 1364 1363 1362 1362 1361 1359 1358 1355 1352 1353 1352 1347 1345 1345 1348 1352 1355 1356 1356 1356 1360 1364 1370 1375 1377 1382 1385 1385 1391 1398 1401 1399 1403 1399 1395 1394 1396 1399 1401 1403 1405 1407 1409 1410 1409 1409 1409 1409 1409 1408 1407
1357 1355 1354 1352 1352 1351 1352 1353 1352 1352 1351 1348 1344 1342 1344 1347 1348 1348 1351 1354 1355 1357 1357 1362 1364 1369 1375 1376 1382 1386 1387 1391 1398 1402 1402 1407 1398 1394 1393 1395 1397 1400 1401 1404 1406 1407 1408 1408 1407 1407 1406 1405 1404 1404
1347 1344 1342 1342 1341 1341 1340 1343 1345 1344 1340 1337 1337 1338 1343 1346 1347 1348 1352 1355 1355 1353 1360 1363 1367 1368 1373 1376 1381 1388 1388 1393 1398 1400 1404 1403 1390 1390 1391 1394 1396 1398 1400 1402 1404 1405 1405 1404 1404 1403 1402 1401 1400 1399
1336 1334 1332 1332 1331 1330 1331 1332 1334 1335 1335 1333 1331 1332 1335 1341 1344 1345 1348 1351 1354 1352 1357 1361 1367 1370 1374 1378 1383 1386 1389 1398 1399 1407 1400 1393 1388 1389 1391 1393 1395 1396 1398 1400 1401 1402 1402 1401 1401 1400 1399 1398 1396 1394
1324 1321 1321 1321 1320 1319 1320 1322 1327 1325 1327 1324 1324 1329 1326 1329 1333 1334 1336 1338 1343 1347 1352 1358 1365 1371 1375 1379 1384 1386 1398 1397 1408 1409 1402 1391 1385 1387 1389 1392 1394 1395 1396 1397 1398 1398 1398 1398 1397 1396 1395 1393 1392 1391
1313 1311 1311 1310 1309 1308 1309 1312 1317 1315 1318 1317 1316 1314 1327 1336 1338 1338 1337 1340 1345 1349 1352 1358 1365 1371 1377 1382 1385 1393 1400 1405 1400 1394 1391 1384 1385 1386 1388 1390 1392 1393 1393 1394 1395 1395 1395 1394 1393 1392 1392 1390 1389 1388
1305 1304 1302 1301 1299 1297 1298 1299 1301 1306 1309 1315 1323 1330 1333 1335 1339 1339 1341 1344 1347 1351 1355 1357 1365 1372 1379 1380 1387 1390 1392 1395 1386 1384 1382 1383 1385 1387 1388 1389 1389 1389 1390 1391 1391 1391 1391 1390 1389 1389 1388 1387 1387 1387
1299 1296 1296 1293 1293 1293 1291 1290 1290 1300 1312 1322 1331 1331 1331 1332 1336 1340 1342 1345 1349 1354 1356 1358 1362 1371 1381 1385 1387 1385 1387 1381 1378 1380 1381 1384 1385 1386 1386 1386 1386 1386 1387 1388 1388 1388 1387 1387 1386 1385 1385 1385 1385 1385
1292 1291 1291 1292 1291 1291 1290 1291 1297 1310 1324 1330 1333 1335 1336 1337 1340 1342 1343 1348 1353 1355 1356 1359 1364 1372 1376 1382 1383 1376 1376 1378 1379 1380 1381 1383 1383 1383 1383 1384 1384 1384 1385 1385 1385 1385 1384 1384 1383 1383 1383 1383 1383 1383
1287 1287 1289 1289 1291 1292 1295 1304 1308 1323 1335 1337 1340 1340 1342 1344 1345 1345 1348 1352 1354 1356 1358 1360 1366 1370 1368 1368 1370 1371 1374 1375 1376 1378 1380 1381 1381 1381 1381 1381 1381 1382 1382 1382 1382 1381 1381 1381 1381 1381 1381 1382 1382 1381
1286 1286 1285 1287 1291 1292 1304 1315 1319 1328 1340 1345 1345 1346 1348 1350 1351 1351 1353 1355 1357 1358 1360 1362 1363 1363 1365 1367 1368 1370 1371 1373 1374 1376 1377 1378 1378 1378 1379 1379 1380 1380 1380 1380 1380 1380 1380 1380 1380 1380 1380 1381 1380 1380
1288 1289 1290 1291 1292 1299 1315 1324 1331 1338 1343 1347 1350 1350 1354 1355 1355 1356 1357 1358 1359 1359 1361 1361 1362 1364 1366 1367 1369 1370 1370 1372 1373 1373 1374 1375 1376 1377 1377 1377 1378 1379 1379 1378 1377 1377 1378 1378 1378 1379 1379 1378 1378 1378
1292 1293 1293 1295 1301 1312 1324 1331 1336 1341 1346 1350 1350 1352 1356 1358 1359 1360 1360 1359 1359 1359 1361 1362 1364 1365 1366 1367 1368 1369 1370 1371 1371 1372 1373 1373 1373 1374 1375 1376 1377 1377 1376 1376 1375 1375 1375 1376 1376 1377 1377 1377 1376 1375
1294 1296 1298 1304 1311 1323 1339 1338 1340 1344 1349 1353 1354 1356 1360 1361 1362 1362 1360 1359 1359 1360 1361 1362 1364 1365 1367 1367 1367 1368 1369 1369 1370 1370 1371 1371 1372 1373 1373 1374 1374 1374 1374 1373 1373 1373 1373 1374 1374 1374 1373 1373 1373 1371
1299 1302 1310 1316 1324 1337 1340 1343 1346 1349 1352 1354 1357 1361 1363 1364 1363 1362 1365 1360 1358 1359 1360 1362 1363 1364 1365 1366 1366 1366 1367 1368 1368 1368 1368 1369 1370 1371 1371 1372 1371 1371 1371 1370 1370 1370 1371 1371 1372 1370 1370 1369 1369 1368
1308 1326 1327 1333 1336 1339 1344 1348 1350 1352 1356 1358 1360 1365 1367 1366 1370 1372 1367 1357 1355 1356 1358 1360 1361 1362 1363 1363 1364 1365 1365 1366 1366 1366 1366 1367 1368 1368 1368 1369 1368 1368 1368 1367 1367 1368 1368 1367 1367 1366 1366 1366 1365 1365
1331 1341 1342 1343 1345 1345 1348 1351 1354 1356 1359 1365 1370 1370 1369 1372 1376 1369 1361 1355 1355 1355 1356 1357 1358 1359 1360 1362 1363 1363 1364 1364 1363 1363 1364 1364 1364 1365 1365 1365 1365 1365 1365 1364 1364 1364 1365 1364 1364 1363 1362 1362 1362 1361
1349 1352 1352 1352 1352 1352 1354 1356 1357 1360 1368 1373 1374 1374 1376 1375 1373 1360 1356 1356 1355 1356 1357 1358 1359 1359 1360 1360 1361 1361 1361 1361 1362 1362 1362 1362 1362 1362 1362 1361 1361 1363 1362 1362 1361 1361 1362 1361 1361 1360 1359 1358 1357 1356
1360 1361 1361 1362 1359 1360 1363 1366 1371 1376 1373 1372 1373 1376 1372 1370 1365 1358 1357 1356 1356 1356 1357 1357 1358 1358 1358 1358 1358 1358 1359 1359 1359 1359 1359 1359 1359 1358 1358 1358 1358 1358 1358 1358 1358 1358 1359 1358 1357 1357 1356 1354 1353 1353
1367 1367 1366 1368 1367 1369 1374 1377 1377 1375 1375 1374 1375 1372 1366 1362 1359 1358 1357 1356 1357 1357 1357 1357 1357 1357 1356 1356 1356 1356 1356 1356 1356 1355 1355 1355 1355 1355 1354 1354 1354 1354 1354 1354 1355 1356 1355 1355 1354 1352 1351 1350 1349 1348
1373 1371 1371 1374 1378 1382 1380 1378 1377 1375 1374 1373 1372 1369 1365 1361 1359 1358 1357 1357 1356 1356 1356 1355 1355 1355 1355 1354 1354 1354 1354 1353 1353 1353 1352 1352 1352 1351 1351 1350 1350 1350 1350 1350 1350 1350 1350 1349 1349 1347 1346 1345 1344 1344
1378 1376 1376 1380 1383 1383 1381 1379 1377 1376 1374 1372 1371 1370 1366 1362 1359 1357 1356 1355 1355 1354 1353 1353 1353 1353 1353 1353 1352 1352 1351 1351 1350 1349 1348 1348 1347 1347 1347 1347 1347 1347 1347 1347 1347 1346 1345 1344 1343 1343 1342 1341 1340 1339
1382 1384 1384 1386 1385 1384 1381 1380 1378 1377 1375 1374 1372 1369 1367 1364 1361 1358 1357 1355 1353 1351 1352 1351 1351 1352 1352 1351 1350 1350 1349 1348 1348 1347 1345 1344 1343 1342 1342 1342 1342 1343 1343 1343 1343 1342 1341 1340 1339 1338 1337 1335 1334 1333
1388 1388 1388 1387 1385 1384 1384 1382 1380 1378 1376 1374 1372 1370 1368 1367 1363 1361 1358 1355 1354 1351 1349 1349 1349 1349 1349 1349 1348 1348 1347 1346 1344 1343 1342 1340 1339 1338 1337 1337 1338 1339 1338 1338 1337 1337 1336 1335 1334 1333 1331 1330 1328 1327
Wind_Speed
37 38 39 39 39 38 37 37 36 36 36 35 34 32 31 31 30 30 37 37 38 21 34 29 27 18 8 8 5 7 4 5 4 5 4 4 4 5 2 4 6 8 7 4 2 4 10 13 7 6 4 7 8 5
33 32 31 33 34 35 35 35 35 35 35 34 34 33 29 28 31 29 38 35 33 36 23 23 27 36 37 35 17 17 8 8 10 5 5 3 4 2 3 3 1 3 5 4 7 4 3 12 4 10 10 8 5 1
31 32 33 33 34 34 35 34 34 33 32 31 30 30 30 28 26 30 35 33 28 23 29 33 21 26 28 28 30 11 11 12 9 11 3 3 4 2 4 4 3 3 3 2 2 2 5 13 10 10 8 6 3 1
30 29 30 29 29 29 30 30 31 31 31 31 30 29 28 28 27 26 33 33 29 11 4 7 14 13 17 20 21 24 16 13 12 17 4 3 3 4 2 1 3 1 8 5 1 3 9 8 12 13 11 7 5 4
34 31 31 30 30 29 29 28 28 28 28 28 28 27 27 27 26 26 29 33 32 27 3 3 7 9 10 11 14 17 17 11 7 3 3 2 2 3 2 0 3 6 5 5 4 8 5 7 11 10 8 5 5 6
36 36 36 34 32 30 29 29 27 26 25 25 24 24 24 23 21 21 19 29 32 37 7 2 4 3 4 7 10 10 10 9 5 4 2 3 2 1 3 3 2 6 7 8 8 11 11 10 8 7 6 6 6 6
34 34 35 35 33 31 29 28 28 25 25 22 21 22 22 20 20 22 11 6 7 14 5 2 2 4 5 4 4 4 5 5 4 4 2 3 1 1 1 3 10 13 10 8 7 8 5 9 5 5 6 7 8 7
35 34 33 32 31 30 29 28 26 25 24 23 22 21 23 21 24 27 26 28 12 14 7 2 1 3 7 3 2 3 3 3 5 3 3 2 2 1 3 6 16 13 10 7 5 4 6 6 5 6 7 8 7 7
35 35 34 33 31 30 28 27 26 24 22 23 22 23 19 17 14 14 20 14 20 8 5 4 5 3 6 3 3 3 3 2 2 2 2 0 0 4 0 13 16 13 8 7 7 4 5 4 4 5 5 6 8 8
34 35 35 34 33 31 29 28 27 21 21 16 17 11 6 3 7 18 11 12 10 4 1 2 4 3 3 3 2 2 2 2 1 2 1 2 3 2 5 13 12 10 8 7 6 5 6 5 5 6 7 7 8 10
36 34 33 33 32 30 29 27 23 14 20 19 8 6 8 18 7 4 4 3 2 1 2 3 3 3 3 2 2 2 2 1 1 2 2 2 3 3 12 13 11 9 7 5 4 3 5 7 8 10 10 10 11 11
38 35 32 33 31 28 26 25 18 17 13 12 9 15 13 6 2 3 2 1 2 4 3 3 3 5 5 4 3 1 2 2 1 3 2 2 3 6 14 15 12 9 6 4 4 6 8 9 10 12 13 13 13 13
35 36 32 31 30 29 26 23 18 22 22 13 6 8 7 4 3 7 8 3 2 4 8 7 4 5 4 4 4 2 2 1 1 2 3 4 2 10 14 14 12 9 7 7 8 10 10 9 9 10 12 12 14 14
35 32 30 30 27 26 25 22 17 21 15 8 9 6 6 5 3 2 2 3 5 12 18 16 6 3 3 3 1 3 1 2 2 1 4 3 8 12 15 13 10 6 8 10 11 11 10 10 10 10 12 13 14 11
33 24 25 27 25 23 24 24 20 29 15 6 4 3 3 5 7 7 10 9 12 21 18 10 7 5 2 3 2 4 2 2 5 4 3 3 5 13 15 12 7 8 9 9 9 9 9 10 10 11 10 11 10 9
22 23 24 22 25 27 24 25 24 29 7 5 7 3 5 4 1 5 13 14 17 18 11 7 3 3 2 3 3 4 5 5 3 3 5 7 7 11 12 9 10 8 7 8 8 8 9 8 9 11 10 6 6 5
18 23 18 20 19 13 6 1 6 8 7 6 3 11 8 11 7 5 13 10 19 3 2 2 3 2 3 2 0 3 4 3 6 9 7 4 4 7 7 6 6 6 7 8 8 9 9 7 10 9 5 2 4 4
18 17 13 14 11 5 2 7 7 7 7 10 4 7 12 10 11 9 12 19 4 3 2 2 7 3 4 4 3 3 4 8 8 7 5 6 5 5 5 4 5 5 6 7 8 7 8 9 7 4 5 4 2 3
14 12 7 15 10 1 5 7 8 5 7 7 9 11 11 11 15 16 20 9 7 7 9 3 4 2 2 2 3 7 12 12 9 9 7 5 5 4 4 3 4 4 5 5 6 4 2 3 5 2 1 2 3 3
5 3 17 15 7 5 6 7 7 8 3 4 6 8 6 7 11 13 9 8 6 2 2 2 2 2 3 6 6 7 9 9 9 9 7 5 2 1 3 3 4 6 7 5 2 4 5 4 2 2 1 4 5 4
5 9 9 9 10 13 8 5 8 6 6 6 5 5 6 8 5 4 4 3 2 1 0 1 3 7 6 7 6 6 7 7 7 5 4 8 5 3 3 3 4 4 5 4 6 3 4 3 6 9 8 4 3 8
9 9 9 11 8 7 9 10 7 6 5 5 4 4 5 2 3 2 1 1 0 1 1 3 8 8 8 7 6 6 4 4 3 3 4 6 5 5 6 5 5 5 5 6 6 6 6 6 2 2 6 5 9 13
9 6 8 8 7 7 4 5 4 4 3 2 2 3 2 2 1 1 1 1 1 5 6 6 9 10 8 6 5 5 3 3 3 4 6 6 5 5 6 7 6 6 5 5 6 6 6 2 6 7 9 9 13 15
8 7 8 7 9 3 4 5 4 3 4 2 2 2 2 3 2 4 1 3 3 5 11 10 11 12 10 9 7 4 4 5 6 6 6 7 7 7 7 6 6 5 5 6 7 7 7 6 6 11 12 11 8 9
7 10 7 6 5 4 4 3 3 3 3 2 2 2 1 4 2 2 2 3 7 10 13 13 12 11 9 6 7 7 8 7 7 6 6 7 8 9 8 8 7 6 7 7 7 7 7 8 9 10 8 8 5 7
8 12 6 6 5 3 3 3 3 2 2 3 3 2 2 3 3 4 3 2 3 10 12 12 11 11 11 9 8 7 6 8 8 9 8 9 9 9 8 9 7 7 7 6 6 6 6 8 9 8 8 7 9 11
6 6 7 9 3 3 4 5 5 4 4 2 1 1 3 3 3 3 3 2 0 2 5 7 7 7 6 8 9 9 9 9 10 9 10 9 9 9 10 10 8 7 8 6 6 6 6 7 7 7 7 9 9 11
7 11 6 11 8 11 3 4 4 3 2 2 1 2 3 5 3 3 2 3 2 3 4 6 7 8 9 9 9 9 10 11 11 11 12 12 12 11 11 10 10 10 10 8 8 7 10 11 9 8 13 14 12 11
7 14 4 6 6 9 7 2 1 2 3 2 1 2 3 4 6 4 4 5 5 5 6 6 7 7 8 9 9 10 10 10 11 13 13 12 12 9 9 9 11 11 11 11 10 13 15 16 17 19 17 15 15 16
10 14 5 5 5 4 5 5 4 3 3 4 5 5 6 5 5 6 6 7 7 6 7 8 9 8 8 9 9 10 9 11 12 13 14 12 11 9 9 9 8 8 8 8 8 9 11 13 12 15 19 18 17 16
8 7 5 6 2 3 6 7 5 5 4 4 5 5 7 8 7 7 8 10 11 12 12 11 11 10 11 10 10 10 10 10 9 9 11 12 13 12 11 9 9 9 8 8 9 9 10 11 12 12 12 13 12 14
10 9 3 3 2 5 8 9 7 5 5 5 4 7 7 6 5 5 8 10 11 15 13 13 12 10 9 10 11 10 11 12 11 12 12 13 12 10 12 12 12 10 8 9 11 12 13 14 14 14 15 15 14 14
5 6 5 3 4 5 9 10 5 8 3 4 5 7 5 4 4 6 14 12 15 13 11 12 12 11 12 12 11 11 12 12 12 13 14 13 12 12 11 11 10 9 13 14 16 17 17 17 18 18 18 18 17 16
Wind_Direction
298 294 291 289 288 287 286 285 285 286 287 288 288 287 283 273 261 244 253 252 241 259 259 252 249 229 214 195 194 152 119 191 165 202 220 215 231 219 161 167 176 173 180 190 184 220 262 150 122 164 172 134 147 143
290 291 294 296 296 295 294 293 292 290 289 287 287 286 284 284 272 258 255 258 268 249 266 281 259 247 246 249 222 183 199 160 183 191 204 225 224 208 182 228 272 232 203 194 187 212 205 171 148 145 148 143 130 128
291 289 289 289 290 290 292 292 291 290 290 289 286 283 283 280 276 266 262 259 271 244 261 259 252 241 238 245 242 221 215 208 199 191 169 195 226 164 193 227 148 218 169 184 73 152 157 144 143 156 163 156 150 166
287 288 290 291 291 292 293 294 293 291 288 287 286 285 281 278 276 270 256 258 252 243 252 248 243 233 233 234 233 227 232 201 208 202 185 188 189 181 198 109 215 143 148 169 165 124 149 178 168 158 153 164 194 246
283 282 283 285 286 287 290 292 293 294 293 290 287 285 283 280 272 273 263 259 256 228 258 237 229 241 234 229 229 233 233 211 183 172 205 192 90 131 71 73 214 188 178 182 221 150 135 133 154 168 187 217 251 283
283 282 282 283 286 289 288 290 292 294 296 295 291 285 282 280 272 269 260 258 252 245 244 222 209 147 219 224 216 197 181 171 155 128 117 93 98 152 201 221 157 157 142 152 156 154 125 142 174 189 218 254 276 280
290 289 286 284 285 286 290 293 292 294 295 293 292 287 281 274 249 229 223 228 204 211 195 178 187 172 168 177 144 99 120 95 105 105 79 112 134 31 244 244 133 145 141 144 157 169 161 173 177 224 259 277 277 277
288 288 288 290 290 289 289 293 297 295 293 284 284 278 273 256 244 230 234 243 221 182 182 223 92 173 174 143 95 104 98 91 52 97 88 99 122 48 251 117 133 138 146 161 172 183 170 184 229 260 276 281 284 289
288 287 286 288 289 291 291 291 293 294 295 293 288 278 260 232 214 212 204 184 178 186 184 180 171 190 140 101 99 72 84 77 46 73 72 19 110 226 240 160 165 170 186 179 189 225 228 224 240 269 281 287 288 292
290 287 285 284 284 286 289 293 294 294 313 278 252 240 234 185 153 147 139 175 200 215 140 105 109 120 111 117 75 103 50 120 95 265 44 87 259 159 162 187 187 184 189 183 178 188 209 241 270 278 286 298 302 298
286 286 287 283 280 281 283 287 294 284 295 251 243 209 153 146 152 158 106 138 158 3 109 103 98 128 98 124 119 39 120 145 101 273 114 291 274 229 184 176 179 184 187 193 206 241 268 279 289 292 292 293 296 296
292 287 286 285 280 276 277 277 279 279 263 226 210 147 152 189 190 126 154 28 201 212 114 111 106 108 101 98 100 63 94 62 208 151 77 274 248 186 185 188 189 191 199 235 277 288 289 287 287 294 299 300 297 294
290 282 282 284 280 278 276 271 270 269 271 227 193 145 157 167 192 188 192 240 177 160 155 146 117 107 102 91 78 112 106 146 87 52 236 227 195 180 184 191 196 207 234 268 286 293 294 286 280 288 296 300 297 294
290 282 279 283 280 276 272 267 261 240 217 217 162 184 210 179 234 165 157 133 108 129 127 117 97 92 108 78 115 105 62 106 63 318 239 251 215 192 190 197 205 235 266 276 282 287 291 290 285 289 299 299 298 295
293 290 285 283 281 279 269 259 253 219 208 222 241 203 83 102 65 87 94 95 111 131 125 107 84 91 77 102 51 115 70 232 205 230 228 218 193 192 196 201 238 274 276 273 276 279 289 289 289 296 300 295 289 292
290 294 286 288 278 275 283 277 218 205 151 97 52 81 127 96 91 71 96 107 132 129 105 83 104 96 94 119 121 203 136 217 236 211 180 171 180 198 209 248 277 280 274 274 273 280 294 290 292 303 308 290 268 271
296 282 294 288 284 293 212 19 108 86 76 67 45 64 72 79 88 108 129 126 140 91 96 125 113 116 107 70 212 191 202 216 181 163 165 185 220 232 253 266 277 279 279 278 275 283 291 285 297 308 312 312 261 246
282 295 292 267 281 291 271 51 75 70 64 47 69 24 52 80 108 104 114 137 99 87 96 111 128 132 156 152 240 215 147 147 162 184 206 226 240 258 261 263 274 276 278 282 285 284 291 291 289 291 275 316 246 19
296 291 272 237 228 317 67 44 43 81 66 75 74 75 73 77 91 122 133 115 110 110 120 105 89 143 198 191 167 164 177 182 188 197 216 234 242 242 246 250 266 260 272 293 305 306 329 321 322 301 262 249 265 309
331 222 206 188 177 89 73 44 60 78 69 65 69 56 60 73 105 110 105 109 114 80 60 78 173 152 150 164 163 175 176 183 179 176 189 193 198 213 235 237 255 280 293 291 295 289 304 308 244 260 359 337 340 303
102 115 119 147 69 66 80 60 65 72 94 82 105 75 76 77 75 69 80 107 58 84 87 121 149 149 144 156 154 155 159 174 188 199 200 192 205 236 254 261 269 263 239 264 285 268 279 254 255 269 276 288 298 304
96 86 83 59 69 67 68 45 92 105 82 102 75 70 91 73 54 31 122 12 225 106 170 185 177 175 171 169 161 156 165 169 174 178 181 166 193 223 239 238 242 248 254 278 274 281 278 274 178 309 280 284 282 288
94 93 59 48 81 59 56 53 70 43 77 98 98 71 50 54 4 349 333 287 268 213 201 184 176 176 184 187 182 189 195 216 228 222 218 228 236 245 250 251 252 253 260 263 268 285 299 267 263 283 284 274 285 291
56 53 40 46 51 77 77 48 59 75 100 69 66 83 46 13 1 36 297 275 228 203 197 196 193 190 195 208 214 218 230 239 237 234 232 236 243 243 240 240 244 253 266 267 268 271 273 273 270 263 279 289 292 311
64 16 32 38 55 71 67 57 41 52 75 58 92 60 340 6 43 9 248 258 218 205 198 202 206 213 228 225 224 228 240 247 253 255 245 245 240 241 241 242 247 252 258 264 264 255 266 287 291 293 288 293 326 321
66 24 37 14 20 46 39 72 47 68 80 61 36 356 13 73 53 256 237 259 236 210 208 211 216 222 236 241 246 249 251 249 249 250 246 250 251 251 248 248 250 250 258 262 253 253 277 296 298 299 293 288 294 291
44 8 25 30 22 63 80 61 65 71 65 72 228 47 64 55 272 259 308 247 157 188 203 219 238 252 266 265 265 262 260 260 259 260 256 259 258 257 254 257 262 262 263 269 264 262 291 306 310 307 310 312 313 311
44 25 23 354 39 30 82 43 41 41 305 32 99 7 146 190 245 323 284 214 219 209 222 230 235 241 249 258 265 262 259 260 261 262 263 266 266 265 265 260 254 257 266 264 266 280 295 311 318 315 315 308 309 311
36 356 357 24 35 43 44 69 285 357 349 316 144 281 271 273 294 297 291 238 241 244 243 249 255 260 262 266 268 268 268 268 266 266 272 278 279 284 276 266 255 255 257 262 254 263 288 302 310 312 298 290 300 308
6 3 71 41 61 9 1 13 11 358 349 317 295 299 295 298 314 294 277 259 260 268 255 249 253 266 274 277 281 281 283 281 278 277 281 289 292 286 279 268 259 253 254 262 272 277 279 282 275 268 278 288 292 293
354 6 64 46 80 17 1 352 350 346 337 321 315 300 308 316 312 300 282 272 262 260 261 266 271 275 279 287 292 295 298 297 303 301 294 285 280 276 272 266 252 250 259 269 282 294 297 296 299 297 294 292 289 288
20 35 39 40 339 347 352 350 340 328 331 327 316 325 328 314 297 318 337 331 302 282 279 271 275 293 289 285 289 296 294 295 298 296 296 296 294 279 266 260 251 249 271 291 296 300 301 299 301 305 307 304 300 295
12 18 38 22 4 1 354 348 352 350 306 318 333 334 333 311 285 335 336 343 344 326 297 270 264 265 273 285 295 298 306 312 301 296 297 302 304 299 285 275 271 259 287 288 291 294 295 296 298 303 305 305 302 298